GSAT0206 (GALILEO 10) (40890 NORAD) Tracking and Keplerian Element Data

This shows tracking and keplerian element data for the satellite.

Feedback or suggestion? Click here.




ElementValue
Catalog40890
NameGSAT0206 (GALILEO 10)
Epoch Orbit1774
Epoch Day198.5957663
Epoch Year2018
RAAN301.3368
Inclination56.7123
Eccentricity6.21E-05
Argument of Perigee164.7113
Mean Anonmoly195.326
Mean Motion1.70475338
Decay Rate-6.2E-07
L11 40890U 15045B 18198.59576630 -.00000062 00000-0 00000+0 0 9992
L22 40890 56.7123 301.3368 0000621 164.7113 195.3260 1.70475338 17746

Live tracking and technical data element details for GSAT0206 (GALILEO 10) (NORAD 40890). GSAT0206 (GALILEO 10) can be tracked NOW for your location showing map with azimuth and elevation plus other details from your city location.

Track the satellite on the map from your city or location and see movement details for azimuth, elevation, latitude, longitude, range, height, and movement on the map or in text.







IsCatalogInMostPopularTable: catalog: 40890, numindb: 60
Update: records affected: 1



GetName: 40890 GSAT0206 (GALILEO 10)

Hit Count: updated at: Wed, 18 Jul 2018 20:30:32 GMT